Regional Weather Roundup
Issued by NWS

Home | Current Version | Previous Version | Graphics & Text | Print | Product List | Glossary Off
Versions: 1 2 3 4 5 6 7 8 9 10 11 12 13 14 15 16 17 18 19 20 21 22 23 24 25 26 27 28 29 30 31 32 33 34 35 36 37 38 39 40 41 42 43 44 45 46 47 48 49 50

000
ASUS44 KMEG 120310
RWRTN
TENNESSEE HOURLY STATE WEATHER ROUNDUP
NATIONAL WEATHER SERVICE MEMPHIS TN
1000 PM CDT FRI JUL 11 2014

TNZ002-004-019-021-049-052-054-088>092-120400-
WEST TENNESSEE

CITY           SKY/WX    TMP DP  RH WIND       PRES   REMARKS
MEMPHIS INTL   PTCLDY    79  71  76 CALM      30.15R
NWS MEMPHIS      N/A     75 N/A N/A MISG        N/A
JACKSON        CLEAR     74  71  91 CALM      30.15R
DYERSBURG      CLEAR     75  63  64 CALM      30.15R
UNION CITY     CLEAR     77  73  88 CALM      30.14R
PARIS          CLEAR     70  68  93 CALM      30.17R
LEXINGTON      CLEAR     73  72  94 CALM      30.15S
SAVANNAH       CLEAR     72  72 100 CALM      30.17R
$$

TNZ008-025-027-028-033-062-065-066-120400-
NORTH MIDDLE TENNESSEE

CITY           SKY/WX    TMP DP  RH WIND       PRES   REMARKS
NASHVILLE      PTCLDY    79  64  60 CALM      30.16R
DICKSON        CLEAR     73  70  88 CALM      30.18R
PORTLAND       CLEAR     73  66  78 CALM      30.17R
CLARKSVILLE    CLEAR     76  65  68 CALM      30.16R
LEBANON        CLEAR     75  61  62 CALM      30.15R
SMYRNA         CLEAR     75  64  68 CALM      30.17R
MURFREESBORO   CLEAR     77  61  57 CALM      30.16R
COOKEVILLE     CLEAR     70  66  88 CALM      30.20R
LIVINGSTON     CLEAR     72  57  58 CALM      30.21R
GALLATIN       CLEAR     78  67  68 N3        30.17R
CROSSVILLE     CLEAR     69  64  84 CALM      30.25R
$$

TNZ061-075-076-078-094-096-097-120400-
SOUTH MIDDLE TENNESSEE

CITY           SKY/WX    TMP DP  RH WIND       PRES   REMARKS
LEWISBURG      CLEAR     74  67  78 CALM      30.17R
TULLAHOMA      CLEAR     72  64  78 CALM      30.21R
WINCHESTER     CLEAR     72  68  88 CALM      30.19R
MCMINNVILLE    CLEAR     70  70 100 CALM      30.20R
COLUMBIA       CLEAR     75  70  83 CALM      30.16R
$$

TNZ017-018-042-046-047-120400-
NORTHEAST TENNESSEE

CITY           SKY/WX    TMP DP  RH WIND       PRES   REMARKS
TRI CITIES     CLEAR     69  59  70 CALM      30.22R
ELIZABETHTON   CLEAR     66  63  88 CALM      30.24R
$$

TNZ012-013-036-069-073-074-120400-
CENTRAL EAST TENNESSEE

CITY           SKY/WX    TMP DP  RH WIND       PRES   REMARKS
KNOXVILLE      PTCLDY    76  64  66 E3        30.17R
OAK RIDGE      CLEAR     73  65  75 CALM      30.20R
$$

TNZ083-085-099-120400-
SOUTHEAST TENNESSEE

CITY           SKY/WX    TMP DP  RH WIND       PRES   REMARKS
CHATTANOOGA    PTCLDY    78  66  66 CALM      30.17R
$$

SKY/WX REPORTED AS FAIR MEANS FEW OR NO CLOUDS BELOW
12 THOUSAND FEET.



USA.gov is the U.S. government's official web portal to all federal, state and local government web resources and services.